Date String (YYYY-MM-DD hh:mm:ss) UTC,Instrument flags,Ambient pressure (hPa),Sample flow (lpm),Bypass flow (lpm),Sample temperature (°C),Ambient temperature (°C),ASC tube jacket temperature (°C),LED temperature (°C),Box temperature (°C),Sample RH (%),Span deviation,Mass concentration (μg/m³),Mass concentration (μg/m³),Mass concentration (μg/m³)
DateTimeUTC,F1_M11,P_M11,Q1_M11,Q2_M11,T1_M11,T2_M11,T3_M11,T4_M11,T5_M11,U1_M11,ZSPAN_M11,X0_M11,X2_M11,X1_M11
2022-09-18 03:00:00,,0822.8,5.00,0.00,30.2,27.2,00.0,38.8,32.0,20.1,0000.0,0009.41,0004.75,0004.10
2022-09-18 03:01:00,,0822.8,5.00,0.00,30.2,26.8,00.0,38.7,31.9,20.2,0000.0,0009.15,0004.72,0004.09
2022-09-18 03:02:00,,0822.8,5.00,0.00,30.1,27.0,00.0,38.7,31.8,20.3,0000.0,0008.85,0004.70,0004.10
2022-09-18 03:03:00,,0822.8,5.01,0.00,30.0,27.3,00.0,38.7,31.7,20.4,0000.0,0008.86,0004.68,0004.11
2022-09-18 03:04:00,,0822.8,5.00,0.00,30.0,27.6,00.0,38.7,31.6,20.5,0000.0,0008.85,0004.70,0004.12
2022-09-18 03:05:00,,0822.8,5.00,0.00,29.9,27.8,00.0,38.7,31.7,20.5,0000.0,0008.69,0004.68,0004.11
2022-09-18 03:06:00,,0822.8,4.99,0.00,29.9,28.0,00.0,38.7,31.7,20.6,0000.0,0008.60,0004.63,0004.11
2022-09-18 03:07:00,,0822.9,5.01,0.00,29.9,28.2,00.0,38.7,31.7,20.5,0000.0,0008.58,0004.62,0004.10
2022-09-18 03:08:00,,0822.9,5.01,0.00,29.9,28.4,00.0,38.7,31.8,20.5,0000.0,0008.74,0004.61,0004.10
2022-09-18 03:09:00,,0823.0,4.99,0.00,30.0,28.5,00.0,38.7,31.7,20.5,0000.0,0009.46,0004.60,0004.11
2022-09-18 03:10:00,,0822.9,5.01,0.00,30.0,28.6,00.0,38.7,31.8,20.4,0000.0,0009.86,0004.59,0004.11
2022-09-18 03:11:00,,0822.9,4.99,0.00,30.0,28.7,00.0,38.7,31.9,20.4,0000.0,0009.93,0004.61,0004.12
2022-09-18 03:12:00,,0823.0,4.99,0.00,30.0,28.7,00.0,38.7,31.9,20.4,0000.0,0010.15,0004.63,0004.13
2022-09-18 03:13:00,,0823.1,5.01,0.00,30.0,28.8,00.0,38.7,31.9,20.4,0000.0,0010.53,0004.64,0004.14
2022-09-18 03:14:00,,0823.1,4.99,0.00,30.1,28.9,00.0,38.7,31.9,20.3,0000.0,0010.57,0004.67,0004.14
2022-09-18 03:15:00,,0823.1,5.01,0.00,30.1,28.9,00.0,38.8,32.0,20.4,0000.0,0010.76,0004.67,0004.14
2022-09-18 03:16:00,,0823.1,4.98,0.00,30.1,29.0,00.0,38.8,32.0,20.4,0000.0,0011.14,0004.71,0004.15
2022-09-18 03:17:00,,0823.1,5.01,0.00,30.1,29.0,00.0,38.8,32.0,20.4,0000.0,0011.76,0004.75,0004.15
2022-09-18 03:18:00,,0823.1,4.99,0.00,30.2,29.0,00.0,38.8,32.1,20.1,0000.0,0011.88,0004.78,0004.17
2022-09-18 03:19:00,,0823.1,5.00,0.00,30.2,28.4,00.0,38.8,32.1,20.1,0000.0,0011.87,0004.77,0004.17
2022-09-18 03:20:00,,0823.1,5.00,0.00,30.2,27.1,00.0,38.8,32.0,20.1,0000.0,0011.45,0004.78,0004.18
2022-09-18 03:21:00,,0823.2,4.99,0.00,30.1,26.8,00.0,38.8,31.9,20.1,0000.0,0010.66,0004.79,0004.18
2022-09-18 03:22:00,,0823.1,5.00,0.00,30.0,27.0,00.0,38.7,31.7,20.3,0000.0,0010.61,0004.83,0004.18
2022-09-18 03:23:00,,0823.1,5.00,0.00,30.0,27.4,00.0,38.7,31.7,20.4,0000.0,0010.50,0004.83,0004.18
2022-09-18 03:24:00,,0823.2,5.00,0.00,30.0,27.7,00.0,38.7,31.7,20.4,0000.0,0010.49,0004.83,0004.18
2022-09-18 03:25:00,,0823.2,5.00,0.00,29.9,27.9,00.0,38.7,31.7,20.5,0000.0,0010.34,0004.81,0004.19
2022-09-18 03:26:00,,0823.2,4.99,0.00,29.9,28.1,00.0,38.7,31.7,20.6,0000.0,0010.12,0004.79,0004.18
2022-09-18 03:27:00,,0823.2,5.01,0.00,29.9,28.3,00.0,38.7,31.7,20.5,0000.0,0009.96,0004.76,0004.17
2022-09-18 03:28:00,,0823.1,5.00,0.00,29.9,28.4,00.0,38.7,31.7,20.5,0000.0,0010.20,0004.76,0004.17
2022-09-18 03:29:00,,0823.1,5.01,0.00,30.0,28.5,00.0,38.7,31.8,20.5,0000.0,0010.15,0004.77,0004.17
2022-09-18 03:30:00,,0823.1,5.00,0.00,30.0,28.6,00.0,38.7,31.8,20.7,0000.0,0010.01,0004.76,0004.17
2022-09-18 03:31:00,,0823.1,5.00,0.00,30.0,28.7,00.0,38.7,31.9,20.7,0000.0,0009.92,0004.75,0004.16
2022-09-18 03:32:00,,0823.1,4.99,0.00,30.0,28.8,00.0,38.7,31.9,22.5,0000.0,0010.05,0004.75,0004.15
2022-09-18 03:33:00,,0823.0,5.01,0.00,30.1,28.8,00.0,38.7,31.9,23.3,0000.0,0010.17,0004.77,0004.16
2022-09-18 03:34:00,,0823.1,4.98,0.00,30.1,28.9,00.0,38.7,32.0,23.5,0000.0,0010.34,0004.81,0004.18
2022-09-18 03:35:00,,0823.1,5.01,0.00,30.1,28.9,00.0,38.8,32.0,24.0,0000.0,0010.19,0004.85,0004.20
2022-09-18 03:36:00,,0823.1,4.99,0.00,30.1,28.9,00.0,38.8,32.0,24.0,0000.0,0010.12,0004.90,0004.22
2022-09-18 03:37:00,,0823.2,5.01,0.00,30.2,29.0,00.0,38.8,32.0,24.0,0000.0,0010.42,0004.99,0004.23
2022-09-18 03:38:00,,0823.2,4.99,0.00,30.2,29.1,00.0,38.8,32.1,23.9,0000.0,0010.56,0005.01,0004.25
2022-09-18 03:39:00,,0823.2,5.01,0.00,30.2,29.1,00.0,38.9,32.1,23.8,0000.0,0010.98,0005.05,0004.25
2022-09-18 03:40:00,,0823.2,4.99,0.00,30.2,29.1,00.0,38.9,32.1,23.6,0000.0,0011.12,0005.09,0004.26
2022-09-18 03:41:00,,0823.1,5.01,0.00,30.3,28.2,00.0,38.9,32.1,23.6,0000.0,0012.29,0005.11,0004.26
2022-09-18 03:42:00,,0823.1,5.00,0.00,30.2,27.0,00.0,38.9,32.0,23.6,0000.0,0012.28,0005.18,0004.27
2022-09-18 03:43:00,,0823.0,5.00,0.00,30.2,26.9,00.0,38.8,32.0,23.5,0000.0,0012.42,0005.24,0004.28
2022-09-18 03:44:00,,0822.9,5.00,0.00,30.1,27.1,00.0,38.8,31.8,23.5,0000.0,0012.20,0005.20,0004.29
2022-09-18 03:45:00,,0822.9,4.99,0.00,30.0,27.4,00.0,38.8,31.7,23.5,0000.0,0012.23,0005.18,0004.29
2022-09-18 03:46:00,,0822.8,5.00,0.00,30.0,27.7,00.0,38.7,31.7,23.6,0000.0,0012.31,0005.15,0004.28
2022-09-18 03:47:00,,0822.7,5.01,0.00,30.0,28.0,00.0,38.7,31.8,23.6,0000.0,0012.37,0005.12,0004.28
2022-09-18 03:48:00,,0822.7,5.01,0.00,30.0,28.2,00.0,38.7,31.7,23.7,0000.0,0012.27,0005.05,0004.29
2022-09-18 03:49:00,,0822.7,4.99,0.00,30.0,28.3,00.0,38.7,31.8,23.7,0000.0,0012.21,0005.07,0004.29
2022-09-18 03:50:00,,0822.6,5.01,0.00,30.0,28.5,00.0,38.7,31.9,23.7,0000.0,0011.17,0005.06,0004.31
2022-09-18 03:51:00,,0822.6,5.01,0.00,30.0,28.5,00.0,38.7,31.9,23.5,0000.0,0011.45,0005.03,0004.31
2022-09-18 03:52:00,,0822.6,5.00,0.00,30.0,28.6,00.0,38.7,31.9,23.4,0000.0,0010.65,0005.03,0004.33
2022-09-18 03:53:00,,0822.6,4.99,0.00,30.0,28.7,00.0,38.8,31.9,23.3,0000.0,0011.00,0005.01,0004.33
2022-09-18 03:54:00,,0822.6,4.99,0.00,30.1,28.8,00.0,38.8,31.9,23.3,0000.0,0010.99,0005.00,0004.32
2022-09-18 03:55:00,,0822.6,4.99,0.00,30.1,28.8,00.0,38.8,32.0,23.2,0000.0,0011.27,0005.02,0004.31
2022-09-18 03:56:00,,0822.7,5.02,0.00,30.1,28.9,00.0,38.8,32.0,22.9,0000.0,0011.11,0004.99,0004.29
2022-09-18 03:57:00,,0822.7,5.00,0.00,30.1,28.9,00.0,38.8,32.0,22.9,0000.0,0011.05,0005.01,0004.29
2022-09-18 03:58:00,,0822.7,5.00,0.00,30.2,29.0,00.0,38.8,32.0,22.9,0000.0,0010.99,0005.01,0004.28
2022-09-18 03:59:00,,0822.7,5.01,0.00,30.2,29.0,00.0,38.9,32.1,22.7,0000.0,0011.13,0005.01,0004.26
